Linton, ND

9:02 PM CST on January 24, 2017 (GMT -0600)
Linton Municipal Airport

Weather History for K7L2 - January, 2014

Change the Weather History Date:

Tuesday, January 14, 2014

  Actual Average (KBIS) Record (KBIS)
Temperature  
Mean Temperature 14 °F -  
Max Temperature 28 °F 20 °F 50 °F (1942)
Min Temperature 1 °F 0 °F -37 °F (1888)
Degree Days  
Heating Degree Days 50    
Moisture  
Dew Point 10 °F    
Average Humidity 76    
Maximum Humidity 93    
Minimum Humidity 54    
Precipitation  
Precipitation 0.00 in - - ()
Sea Level Pressure  
Sea Level Pressure 30.10 in    
Wind  
Wind Speed 22 mph (NW)    
Max Wind Speed 41 mph    
Max Gust Speed 52 mph    
Visibility 10 miles    
Events Rain , Snow    
Averages and records for this station are not official NWS values.
T = Trace of Precipitation, MM = Missing Value Source: NWS Daily Summary

Daily Weather History Graph

Daily Weather History Graph

Search for Another Location

Airport or City:

Trip Planner

Search our weather history database for the weather conditions in past years. The results will help you decide how hot, cold, wet, or windy it might be!

Date:

Astronomy

Jan. 14, 2014 Rise Set
Actual Time 8:20 AM CST 5:20 PM CST
Civil Twilight 7:46 AM CST 5:54 PM CST
Nautical Twilight 7:09 AM CST 6:31 PM CST
Astronomical Twilight 6:33 AM CST 7:07 PM CST
Moon 4:29 PM CST (1/14) 6:54 AM CST (1/14)
Length of Visible Light 10h 07m
Length of Day
9h 00m
Waxing Gibbous, 98% of the Moon is Illuminated
Jan 14
Waxing Gibbous
Jan 15
Full
Jan 23
Last Quarter
Jan 30
New
Feb 6
First Quarter

Hourly Weather History & Observations

Time (CST) Temp. Windchill Dew Point Humidity Pressure Visibility Wind Dir Wind Speed Gust Speed Precip Events Conditions
12:15 AM 28.4 °F 12.3 °F 24.8 °F 86% 29.75 in 10.0 mi NW 32.2 mph 39.1 mph N/A   Overcast
12:35 AM 28.4 °F 10.6 °F 23.0 °F 80% 29.77 in 10.0 mi NW 41.4 mph 50.6 mph N/A   Overcast
12:55 AM 26.6 °F 12.0 °F 23.0 °F 86% 29.79 in 10.0 mi NNW 23.0 mph 42.6 mph N/A   Mostly Cloudy
1:15 AM 24.8 °F 11.1 °F 23.0 °F 93% 29.81 in 10.0 mi NW 18.4 mph 23.0 mph N/A   Mostly Cloudy
1:35 AM 24.8 °F 8.4 °F 21.2 °F 86% 29.84 in 10.0 mi NNW 27.6 mph 35.7 mph N/A   Overcast
1:55 AM 24.8 °F 6.8 °F 19.4 °F 80% 29.85 in 10.0 mi NW 34.5 mph 46.0 mph N/A   Overcast
2:15 AM 23.0 °F 3.2 °F 17.6 °F 80% 29.85 in 10.0 mi NW 40.3 mph 51.8 mph N/A   Overcast
2:35 AM 23.0 °F 4.9 °F 19.4 °F 86% 29.86 in 10.0 mi NW 32.2 mph 42.6 mph N/A   Overcast
2:55 AM 23.0 °F 6.0 °F 17.6 °F 80% 29.87 in 10.0 mi NW 27.6 mph 42.6 mph N/A   Mostly Cloudy
3:15 AM 23.0 °F 4.6 °F 15.8 °F 74% 29.88 in 10.0 mi NNW 33.4 mph 43.7 mph N/A   Mostly Cloudy
3:35 AM 23.0 °F 7.6 °F 17.6 °F 80% 29.91 in 10.0 mi NNW 21.9 mph 36.8 mph N/A   Overcast
3:55 AM 23.0 °F 8.3 °F 17.6 °F 80% 29.91 in 10.0 mi NW 19.6 mph 24.2 mph N/A Rain Light Freezing Rain
4:15 AM 23.0 °F 6.0 °F 17.6 °F 80% 29.92 in 10.0 mi NNW 27.6 mph 38.0 mph N/A Rain Light Freezing Rain
4:35 AM 23.0 °F 7.2 °F 15.8 °F 74% 29.94 in 10.0 mi NNW 23.0 mph 36.8 mph N/A   Overcast
4:55 AM 21.2 °F 6.0 °F 15.8 °F 80% 29.96 in 10.0 mi NW 19.6 mph 28.8 mph N/A   Overcast
5:15 AM 19.4 °F 3.2 °F 15.8 °F 86% 29.97 in 10.0 mi NW 20.7 mph 25.3 mph N/A   Overcast
5:35 AM 19.4 °F 0.2 °F 14.0 °F 80% 29.97 in 10.0 mi NW 31.1 mph 39.1 mph N/A   Overcast
5:55 AM 19.4 °F 2.1 °F 14.0 °F 80% 29.99 in 10.0 mi NW 24.2 mph 34.5 mph N/A Snow Light Snow
6:15 AM 19.4 °F 1.1 °F 14.0 °F 80% 30.00 in 10.0 mi NW 27.6 mph 35.7 mph N/A Snow Light Snow
6:35 AM 19.4 °F 1.4 °F 14.0 °F 80% 30.02 in 10.0 mi NNW 26.5 mph 36.8 mph N/A Snow Light Snow
6:55 AM 17.6 °F 0.1 °F 14.0 °F 86% 30.03 in 10.0 mi NW 23.0 mph 31.1 mph N/A   Mostly Cloudy
7:15 AM 17.6 °F 0.9 °F 12.2 °F 79% 30.04 in 10.0 mi NW 20.7 mph 24.2 mph N/A   Mostly Cloudy
7:35 AM 17.6 °F 2.7 °F 12.2 °F 79% 30.06 in 10.0 mi NW 16.1 mph 26.5 mph N/A   Overcast
7:55 AM 17.6 °F 0.9 °F 10.4 °F 73% 30.06 in 10.0 mi NW 20.7 mph 26.5 mph N/A   Scattered Clouds
8:15 AM 15.8 °F -1.5 °F 10.4 °F 79% 30.06 in 10.0 mi NW 20.7 mph 25.3 mph N/A   Clear
8:35 AM 15.8 °F -1.1 °F 10.4 °F 79% 30.07 in 10.0 mi NW 19.6 mph 25.3 mph N/A   Clear
8:55 AM 15.8 °F 1.4 °F 10.4 °F 79% 30.10 in 10.0 mi NNW 13.8 mph 21.9 mph N/A   Clear
9:15 AM 15.8 °F 0.3 °F 10.4 °F 79% 30.11 in 10.0 mi NNW 16.1 mph - N/A   Clear
9:35 AM 17.6 °F 2.7 °F 10.4 °F 73% 30.13 in 10.0 mi NNW 16.1 mph 20.7 mph N/A   Clear
9:55 AM 15.8 °F 1.4 °F 10.4 °F 79% 30.13 in 10.0 mi NW 13.8 mph - N/A   Clear
10:15 AM 15.8 °F -0.2 °F 10.4 °F 79% 30.14 in 10.0 mi NW 17.3 mph - N/A   Clear
10:35 AM 17.6 °F 2.2 °F 10.4 °F 73% 30.14 in 10.0 mi NW 17.3 mph - N/A   Clear
10:55 AM 17.6 °F 1.3 °F 10.4 °F 73% 30.15 in 10.0 mi NW 19.6 mph 24.2 mph N/A   Clear
11:15 AM 17.6 °F 3.2 °F 10.4 °F 73% 30.17 in 10.0 mi NW 15.0 mph - N/A   Clear
11:35 AM 19.4 °F 4.5 °F 10.4 °F 68% 30.17 in 10.0 mi NW 17.3 mph 23.0 mph N/A   Clear
11:55 AM 19.4 °F 5.0 °F 10.4 °F 68% 30.17 in 10.0 mi NNW 16.1 mph 28.8 mph N/A   Clear
12:15 PM 19.4 °F 3.2 °F 10.4 °F 68% 30.17 in 10.0 mi NNW 20.7 mph 24.2 mph N/A   Partly Cloudy
12:35 PM 19.4 °F 2.8 °F 10.4 °F 68% 30.18 in 10.0 mi NW 21.9 mph 27.6 mph N/A   Clear
12:55 PM 19.4 °F 4.1 °F 10.4 °F 68% 30.18 in 10.0 mi NNW 18.4 mph 25.3 mph N/A   Mostly Cloudy
1:15 PM 19.4 °F 5.0 °F 10.4 °F 68% 30.17 in 10.0 mi NNW 16.1 mph - N/A   Mostly Cloudy
1:35 PM 21.2 °F 7.3 °F 10.4 °F 63% 30.17 in 10.0 mi NNW 16.1 mph 20.7 mph N/A   Partly Cloudy
1:55 PM 23.0 °F 8.0 °F 10.4 °F 59% 30.17 in 10.0 mi NNW 20.7 mph 26.5 mph N/A   Clear
2:15 PM 23.0 °F 6.3 °F 8.6 °F 54% 30.17 in 10.0 mi NW 26.5 mph 29.9 mph N/A   Clear
2:35 PM 23.0 °F 8.0 °F 8.6 °F 54% 30.18 in 10.0 mi NW 20.7 mph 31.1 mph N/A   Clear
2:55 PM 21.2 °F 4.5 °F 8.6 °F 58% 30.19 in 10.0 mi NW 24.2 mph - N/A   Clear
3:15 PM 21.2 °F 5.2 °F 8.6 °F 58% 30.20 in 10.0 mi NW 21.9 mph 31.1 mph N/A   Clear
3:35 PM 19.4 °F 2.8 °F 8.6 °F 63% 30.22 in 10.0 mi NW 21.9 mph 31.1 mph N/A   Clear
3:55 PM 19.4 °F 2.5 °F 8.6 °F 63% 30.22 in 10.0 mi NW 23.0 mph 28.8 mph N/A   Clear
4:15 PM 19.4 °F 4.1 °F 6.8 °F 58% 30.23 in 10.0 mi NW 18.4 mph 25.3 mph N/A   Clear
4:35 PM 17.6 °F 3.2 °F 8.6 °F 68% 30.23 in 10.0 mi NW 15.0 mph - N/A   Clear
4:55 PM 17.6 °F 1.7 °F 8.6 °F 68% 30.23 in 10.0 mi NW 18.4 mph 25.3 mph N/A   Clear
5:15 PM 17.6 °F 1.3 °F 6.8 °F 63% 30.23 in 10.0 mi NW 19.6 mph 25.3 mph N/A   Clear
5:35 PM 15.8 °F 0.9 °F 6.8 °F 68% 30.23 in 10.0 mi NW 15.0 mph - N/A   Clear
5:55 PM 15.8 °F 2.7 °F 6.8 °F 68% 30.24 in 10.0 mi NW 11.5 mph - N/A   Clear
6:15 PM 12.2 °F 4.3 °F 6.8 °F 79% 30.24 in 10.0 mi WNW 4.6 mph - N/A   Clear
6:35 PM 12.2 °F 6.1 °F 6.8 °F 79% 30.24 in 10.0 mi West 3.5 mph - N/A   Clear
6:55 PM 10.4 °F - 6.8 °F 85% 30.24 in 10.0 mi Calm Calm - N/A   Clear
7:15 PM 10.4 °F 4.0 °F 5.0 °F 79% 30.24 in 10.0 mi SW 3.5 mph - N/A   Clear
7:35 PM 10.4 °F 2.2 °F 5.0 °F 79% 30.24 in 10.0 mi West 4.6 mph - N/A   Clear
7:55 PM 10.4 °F -0.4 °F 5.0 °F 79% 30.24 in 10.0 mi NW 6.9 mph - N/A   Clear
8:15 PM 8.6 °F 0.1 °F 5.0 °F 85% 30.24 in 10.0 mi NW 4.6 mph - N/A   Clear
8:35 PM 10.4 °F 4.0 °F 6.8 °F 85% 30.22 in 10.0 mi NNW 3.5 mph - N/A   Clear
8:55 PM 6.8 °F -2.0 °F 1.4 °F 79% 30.22 in 10.0 mi NNW 4.6 mph - N/A   Clear
9:15 PM 5.0 °F -2.1 °F 1.4 °F 85% 30.23 in 10.0 mi West 3.5 mph - N/A   Clear
9:35 PM 5.0 °F -4.1 °F 1.4 °F 85% 30.23 in 10.0 mi West 4.6 mph - N/A   Clear
9:55 PM 3.2 °F -6.2 °F 1.4 °F 92% 30.23 in 10.0 mi WNW 4.6 mph - N/A   Clear
10:15 PM 1.4 °F - -0.4 °F 92% 30.22 in 10.0 mi Calm Calm - N/A   Clear
10:35 PM 5.0 °F - 1.4 °F 85% 30.21 in 10.0 mi Calm Calm - N/A   Clear
10:55 PM 5.0 °F - 1.4 °F 85% 30.21 in 10.0 mi Calm Calm - N/A   Clear
11:15 PM 5.0 °F - 1.4 °F 85% 30.21 in 10.0 mi Calm Calm - N/A   Clear
11:35 PM 5.0 °F -2.1 °F 1.4 °F 85% 30.20 in 10.0 mi SW 3.5 mph - N/A   Clear
11:55 PM 1.4 °F -9.9 °F -0.4 °F 92% 30.19 in 10.0 mi SW 5.8 mph - N/A   Clear